Weather History for Beatrice, NE

Change the Weather History Date:

Sunday, January 9, 2000

  Actual Average Record
Temperature  
Mean Temperature 38 °F -  
Max Temperature 44 °F 28 °F 57 °F (1963)
Min Temperature 30 °F 9 °F -11 °F (1974)
Degree Days  
Heating Degree Days 27    
Moisture  
Dew Point 34 °F    
Average Humidity 84    
Maximum Humidity 93    
Minimum Humidity 65    
Precipitation  
Precipitation 0.00 in - - ()
Sea Level Pressure  
Sea Level Pressure 29.60 in    
Wind  
Wind Speed 7 mph (SSW)    
Max Wind Speed 12 mph    
Max Gust Speed -    
Visibility 6 miles    
Events      
Averages and records for this station are not official NWS values.
T = Trace of Precipitation, MM = Missing Value Source: NWS Daily Summary

Daily Weather History Graph

Daily Weather History Graph

Search for Another Location

Airport:

Trip Planner

Search our weather history database for the weather conditions in past years. The results will help you decide how hot, cold, wet, or windy it might be!

Date:

Astronomy

Jan. 09, 2000 Rise Set
Actual Time 7:49 AM CST 5:18 PM CST
Civil Twilight 7:19 AM CST 5:48 PM CST
Nautical Twilight 6:45 AM CST 6:22 PM CST
Astronomical Twilight 6:12 AM CST 6:55 PM CST
Moon 9:44 AM CST (1/9) 8:14 PM CST (1/9)
Length of Visible Light 10h 29m
Length of Day
9h 28m
Waxing Crescent, 8% of the Moon is Illuminated
Jan 9
Waxing Crescent
Jan 14
First Quarter
Jan 20
Full
Jan 28
Last Quarter
Feb 5
New

Hourly Weather History & Observations

Time (CST) Temp. Windchill Dew Point Humidity Pressure Visibility Wind Dir Wind Speed Gust Speed Precip Events Conditions
12:09 AM 37.4 °F 32.1 °F 35.6 °F 93% 29.74 in 0.5 mi SSW 6.9 mph - N/A   Overcast
12:32 AM 37.4 °F 33.8 °F 33.8 °F 87% 29.73 in 0.2 mi SW 4.6 mph - N/A   Overcast
12:49 AM 37.4 °F 33.8 °F 35.6 °F 93% 29.73 in 0.2 mi SSW 4.6 mph - N/A   Overcast
1:10 AM 37.4 °F 34.9 °F 35.6 °F 93% 29.71 in 0.2 mi South 3.5 mph - N/A   Overcast
1:29 AM 37.4 °F 33.8 °F 35.6 °F 93% 29.71 in 0.2 mi South 4.6 mph - N/A   Overcast
1:51 AM 37.4 °F 34.9 °F 35.6 °F 93% 29.70 in 0.2 mi South 3.5 mph - N/A   Overcast
2:09 AM 39.2 °F 37.0 °F 37.4 °F 93% 29.69 in 0.5 mi SSE 3.5 mph - N/A   Overcast
2:29 AM 39.2 °F 35.9 °F 37.4 °F 93% 29.70 in 2.0 mi South 4.6 mph - N/A   Overcast
2:51 AM 39.2 °F 35.9 °F 37.4 °F 93% 29.70 in 4.0 mi SSW 4.6 mph - N/A   Overcast
3:49 AM 39.2 °F 35.0 °F 37.4 °F 93% 29.69 in 5.0 mi South 5.8 mph - N/A   Overcast
4:12 AM 39.2 °F 33.6 °F 35.6 °F 87% 29.68 in 2.0 mi South 8.1 mph - N/A   Overcast
4:53 AM 39.2 °F 35.0 °F 37.4 °F 93% 29.67 in 0.5 mi South 5.8 mph - N/A   Overcast
5:29 AM 39.2 °F 33.6 °F 37.4 °F 93% 29.66 in 0.5 mi South 8.1 mph - N/A   Overcast
5:54 AM 39.2 °F 33.0 °F 35.6 °F 87% 29.67 in 0.5 mi SSW 9.2 mph - N/A   Overcast
6:10 AM 39.2 °F 34.2 °F 35.6 °F 87% 29.67 in 0.5 mi South 6.9 mph - N/A   Overcast
6:29 AM 39.2 °F 35.0 °F 35.6 °F 87% 29.67 in 0.5 mi South 5.8 mph - N/A   Overcast
6:49 AM 39.2 °F 35.9 °F 35.6 °F 87% 29.66 in 0.5 mi South 4.6 mph - N/A   Overcast
7:31 AM 39.2 °F 35.0 °F 37.4 °F 93% 29.66 in 0.2 mi South 5.8 mph - N/A   Overcast
8:09 AM 37.4 °F 31.4 °F 35.6 °F 93% 29.66 in 0.2 mi South 8.1 mph - N/A   Overcast
8:29 AM 37.4 °F 30.8 °F 35.6 °F 93% 29.66 in 0.5 mi South 9.2 mph - N/A   Overcast
8:51 AM 37.4 °F 32.8 °F 35.6 °F 93% 29.67 in 0.8 mi SSW 5.8 mph - N/A   Overcast
9:29 AM 37.4 °F 30.3 °F 35.6 °F 93% 29.67 in 1.0 mi South 10.4 mph - N/A   Overcast
9:52 AM 39.2 °F 32.0 °F 37.4 °F 93% 29.66 in 5.0 mi South 11.5 mph - N/A   Overcast
10:29 AM 39.2 °F 33.6 °F 37.4 °F 93% 29.65 in 5.0 mi South 8.1 mph - N/A   Overcast
10:52 AM 42.8 °F 37.0 °F 39.2 °F 87% 29.65 in 10.0 mi SSW 10.4 mph - N/A   Overcast
11:10 AM 42.8 °F 37.0 °F 39.2 °F 87% 29.64 in 10.0 mi SSW 10.4 mph - N/A   Overcast
11:29 AM 42.8 °F 37.0 °F 37.4 °F 81% 29.63 in 10.0 mi SSW 10.4 mph - N/A   Overcast
11:51 AM 42.8 °F 37.0 °F 39.2 °F 87% 29.61 in 10.0 mi SW 10.4 mph - N/A   Overcast
12:12 PM 44.6 °F 39.2 °F 37.4 °F 76% 29.59 in 10.0 mi South 10.4 mph - N/A   Overcast
12:35 PM 44.6 °F 38.8 °F 37.4 °F 76% 29.59 in 10.0 mi SSW 11.5 mph - N/A   Overcast
12:49 PM 42.8 °F 36.6 °F 37.4 °F 81% 29.58 in 10.0 mi WSW 11.5 mph - N/A   Overcast
1:32 PM 41.0 °F 35.2 °F 35.6 °F 81% 29.57 in 10.0 mi WSW 9.2 mph - N/A   Overcast
2:09 PM 41.0 °F 34.7 °F 35.6 °F 81% 29.55 in 10.0 mi WSW 10.4 mph - N/A   Overcast
2:32 PM 41.0 °F 35.8 °F 37.4 °F 87% 29.54 in 10.0 mi South 8.1 mph - N/A   Mostly Cloudy
2:52 PM 41.0 °F 35.2 °F 35.6 °F 81% 29.54 in 10.0 mi SSW 9.2 mph - N/A   Mostly Cloudy
3:29 PM 41.0 °F 35.8 °F 33.8 °F 76% 29.53 in 10.0 mi SW 8.1 mph - N/A   Scattered Clouds
3:53 PM 41.0 °F 35.8 °F 33.8 °F 76% 29.53 in 10.0 mi SW 8.1 mph - N/A   Mostly Cloudy
4:09 PM 41.0 °F 37.1 °F 33.8 °F 76% 29.53 in 10.0 mi SSW 5.8 mph - N/A   Mostly Cloudy
4:32 PM 39.2 °F 33.6 °F 33.8 °F 81% 29.53 in 10.0 mi SW 8.1 mph - N/A   Clear
4:51 PM 39.2 °F 34.2 °F 33.8 °F 81% 29.53 in 10.0 mi SSW 6.9 mph - N/A   Clear
5:10 PM 39.2 °F 33.6 °F 33.8 °F 81% 29.53 in 10.0 mi South 8.1 mph - N/A   Clear
5:29 PM 39.2 °F 33.6 °F 32.0 °F 75% 29.53 in 10.0 mi South 8.1 mph - N/A   Clear
5:52 PM 37.4 °F 31.4 °F 32.0 °F 81% 29.53 in 10.0 mi SSW 8.1 mph - N/A   Scattered Clouds
6:30 PM 37.4 °F 31.4 °F 32.0 °F 81% 29.53 in 10.0 mi SSW 8.1 mph - N/A   Clear
6:53 PM 35.6 °F 29.2 °F 30.2 °F 81% 29.53 in 10.0 mi SSW 8.1 mph - N/A   Clear
7:29 PM 35.6 °F 28.6 °F 30.2 °F 81% 29.53 in 10.0 mi SSW 9.2 mph - N/A   Scattered Clouds
7:49 PM 37.4 °F 30.8 °F 30.2 °F 75% 29.53 in 10.0 mi SSW 9.2 mph - N/A   Scattered Clouds
8:32 PM 35.6 °F 29.2 °F 28.4 °F 75% 29.53 in 10.0 mi WSW 8.1 mph - N/A   Mostly Cloudy
8:49 PM 35.6 °F 28.0 °F 26.6 °F 70% 29.53 in 10.0 mi WSW 10.4 mph - N/A   Scattered Clouds
9:12 PM 35.6 °F 30.7 °F 28.4 °F 75% 29.53 in 10.0 mi WSW 5.8 mph - N/A   Scattered Clouds
9:51 PM 35.6 °F 29.2 °F 26.6 °F 70% 29.53 in 10.0 mi West 8.1 mph - N/A   Scattered Clouds
10:09 PM 33.8 °F 27.7 °F 26.6 °F 75% 29.52 in 10.0 mi West 6.9 mph - N/A   Mostly Cloudy
10:31 PM 35.6 °F 28.6 °F 26.6 °F 70% 29.51 in 10.0 mi West 9.2 mph - N/A   Scattered Clouds
10:51 PM 35.6 °F 28.6 °F 24.8 °F 65% 29.51 in 10.0 mi West 9.2 mph - N/A   Scattered Clouds
11:10 PM 33.8 °F 26.4 °F 24.8 °F 70% 29.50 in 10.0 mi West 9.2 mph - N/A   Clear
11:29 PM 32.0 °F 24.8 °F 23.0 °F 69% 29.49 in 10.0 mi West 8.1 mph - N/A   Clear
11:51 PM 30.2 °F 22.6 °F 23.0 °F 75% 29.49 in 10.0 mi West 8.1 mph - N/A   Clear